User: anonymous   Login
Location: Chochol
(49.7771°N, 14.9780°E)
Time: 10:47:41
(UTC+00:00)
Language:

STARLINK-1244 - Orbit

View from above orbital plane
View from above orbital plane
View from above satellite
View from above satellite

Ground track
Ground track

The orbit data is extracted from the following two-line orbital elements,

1 45196U 20012U   20185.16667824 -.00038192  00000-0 -26142-2 0  9998
2 45196  53.0000   4.0052 0001277 108.7774 149.7849 15.05607529 21125
Epoch (UTC): 03 July 2020 04:00:01
Eccentricity: 0.0001277
inclination: 53.0000°
perigee height: 549 km
apogee height: 550 km
right ascension of ascending node: 4.0052°
argument of perigee: 108.7774°
revolutions per day: 15.05607529
mean anomaly at epoch: 149.7849°
orbit number at epoch: 2112

The dashed part of the orbit path shows where the satellite is in the earth's shadow,  

DLR